Location: Arbon
(43.0005°N, 0.7472°E)
Time: 21:49:48
(UTC+00:00)

Courier 1B Rocket - Pass Details

Date: 01 December 2020
Orbit: 920 x 1202 km, 28.2° (Epoch: 23 January)

Event Time Altitude Azimuth Distance (km) Brightness Sun altitude
Exits shadow 05:33:55 - 232° (SW) 3,701 7.7 -16.9°
Reaches altitude 10° 05:36:01 10° 224° (SW) 3,126 7.4 -16.5°
Maximum altitude 05:42:05 25° 173° (S) 2,199 7.1 -15.4°
Drops below altitude 10° 05:48:05 10° 122° (ESE) 3,088 8.9 -14.4°
Sets 05:51:24 0° 109° (ESE) 4,020 10.2 -13.8°
